Home   Weather   Rainy River   Past weeks

Flag for Canada Past Weather in Rainy River, Ontario, Canada — Yesterday and Last 2 Weeks

Now
7 °F

Clear.


Feels Like: -7 °F
Forecast: 2 / 22 °F
Wind: 9 mph from Northwest

Location: Baudette International Airport

Current Time: Feb 25, 2017 at 1:10:56 am

Latest Report: Feb 24, 2017 at 11:53 pm


Visibility: 10 mi

Pressure: 30.06 "Hg

Humidity: 73%

Dew Point: 0 °F

Location of Rainy RiverLocation

Past Weather in Rainy River — Graph

°F

Rainy River Temperature Yesterday

Maximum temperature yesterday: 17 °F (at 3:53 pm)
Minimum temperature yesterday: 2 °F (at 6:53 am)
Average temperature yesterday: 10 °F

High & Low Weather Summary for the Past Weeks

 TemperatureHumidityPressure
High54 °F (Feb 17, 2:53 pm)100% (Feb 20, 4:36 pm)30.21 "Hg (Feb 20, 4:36 pm)
Low-1 °F (Feb 15, 3:53 am)38% (Feb 17, 4:53 pm)29.29 "Hg (Feb 17, 4:53 pm)
Average27 °F76%29.79 "Hg
* Reported Feb 9 11:17 pm — Feb 24 11:53 pm, Rainy River, Weather by CustomWeather, © 2017

Note: Actual official high and low records may vary slightly from our data, if they occured in-between our weather recording intervals... More about our weather records

Advertising

Rainy River Weather History for the Previous 24 Hours

Scroll right to see more
 ConditionsComfort  
Time TempWeatherWind HumidityBarometerVisibility
11:53 pm
Fri, Feb 24
7 °FClear.9 mph73%30.06 "Hg10 mi
10:53 pm8 °FClear.9 mph72%30.07 "Hg10 mi
9:53 pm8 °FClear.6 mph72%30.08 "Hg10 mi
8:53 pm10 °FClear.9 mph67%30.08 "Hg10 mi
7:53 pm12 °FClear.10 mph64%30.08 "Hg10 mi
6:53 pm12 °FClear.8 mph64%30.08 "Hg10 mi
5:53 pm15 °FClear.8 mph58%30.07 "Hg10 mi
4:53 pm17 °FSunny.10 mph54%30.07 "Hg10 mi
3:53 pm17 °FSunny.12 mph56%30.08 "Hg10 mi
2:53 pm16 °FSunny.12 mph56%30.09 "Hg10 mi
1:53 pm16 °FSunny.14 mph56%30.09 "Hg10 mi
12:53 pm14 °FSunny.12 mph61%30.11 "Hg10 mi
11:53 am14 °FSunny.15 mph58%30.13 "Hg10 mi
10:53 am13 °FSunny.9 mph61%30.14 "Hg10 mi
9:53 am10 °FSunny.7 mph73%30.15 "Hg10 mi
8:53 am6 °FSunny.6 mph79%30.16 "Hg10 mi
7:53 am2 °FSunny.5 mph83%30.16 "Hg10 mi
6:53 am2 °FClear.6 mph88%30.16 "Hg10 mi
5:53 am4 °FClear.3 mph84%30.15 "Hg10 mi
4:53 am5 °FClear.7 mph83%30.15 "Hg10 mi
3:53 am6 °FClear.7 mph79%30.15 "Hg10 mi
2:53 am7 °FClear.7 mph79%30.15 "Hg10 mi
1:53 am8 °FClear.8 mph79%30.17 "Hg10 mi
Weather by CustomWeather, © 2017

See weather overviewHow to use our weather pages